User: anonymous
Location: Unspecified
(0.0000°N, 0.0000°E)
Time: 20:43:26
(UTC+00:00)
Language:

PROBA 2 - Orbit

View from above orbital plane
View from above orbital plane
View from above satellite
View from above satellite

Ground track
Ground track

The orbit data is extracted from the following two-line orbital elements,

1 36037U 09059B   14107.47023431  .00000230  00000-0  67118-4 0  3861
2 36037 098.2885 300.9895 0012024 297.1257 080.8986 14.52577806236181
Epoch (UTC): 17 April 2014 11:17:08
Eccentricity: 0.0012024
inclination: 98.2885°
perigee height: 709 km
apogee height: 726 km
right ascension of ascending node: 300.9895°
argument of perigee: 297.1257°
revolutions per day: 14.52577806
mean anomaly at epoch: 80.8986°
orbit number at epoch: 23618

The dashed part of the orbit path shows where the satellite is in the earth's shadow,  

DLR